Timeline UpdatesTrip UpdatesNews PostsPvt PostsTravel TipsAdmin PostsConv PostsFollowed PostsChat RequestsBlog PostsPNR Posts

Disclaimer
Search
 
 
Thu Jul 24, 2014 18:31:47 ISTHomeTrainsΣChainsAtlasPNRForumGalleryNewsFAQTripsMembersLoginFeedback
No Recent News for this Train
Other Trains in the News **new
Latest...
(Slip Coach from Gorakhpur to Kolhapur Run with 15018 L.t.t Exp.deattched at BSL. Coach attached @ Bhusaval on 11040 From BSL To KOP)& Loco reversal @ Allahabad,Daund & Pune.;
Sun Oct 02, 2011 (08:15PM)
⇐ Return Journey: Train# 11039-Slip

15018-Slip/Gorakhpur - Kolhapur Express Slip

Jul 08 2013 (2:39PM)
Change Departure Station:
Change Arrival Station:
Post a Train Travel TipPost a Train Travel Tip **new
Post a Comment/Question/Picture/VideoPost a Comment/Question/Picture/Video
Pantry/Catering
✕ NO Pantry Car
✓ Catering Avbl
Loco/Rake Reversals
DD/Daund Junction (7); PUNE/Pune Junction (6); ALD/Allahabad Junction (10);
RSA - Rake Sharing
Rake/Coach Composition
S1 ,S2 ;;S2 As per PNR Entry --->>http://indiarailinfo.com/pnr/post/359961
Loco
GKP-ET: ET WDM-3A/3D (Twins) ET-BSL: BSL WAP-4 BSL-KOP: PUNE/GTL WDM-3D
News    PNR    Forum    Time-Table    Availability    Fare Chart    Map    Arr/Dep History    Trips    Gallery    ΣChains    X/O    Timeline    
Travel Time: 40h 20m    54 halts    Distance: 1530 km    Avg Speed: 37 km/hr
Type: Mail/Express
Zone: NER/North Eastern
Departs @ 20:25
Platform# ???
SMTWTFS
Maihar/MYR 
Arrives @ 12:45 +2 nights
Platform# 3
SMTWTFS
Kolhapur CSMT/KOP 

54 halts. 192 intermediate Stations between Maihar and Kolhapur CSMT

Show ALL intermediate Stations  Show Old Time-Table

#CodeStation NameX/OArrivesAvgDepartsAvgHaltPFDay#KmSpeedElevZoneAddress
1GKPGorakhpur Junction (10)  -05:30---1-577.56984mNERGorakhpur 273001, Uttar Pradesh
2DEOSDeoria Sadar (3)  06:13-06:15-2m--1-528.43179mNERDeoria- 274001, Uttar Pradesh
3BTTBhatni Junction (5)  06:55-07:00-5m--1-507.64773mNERDeoria, Uttar Pradesh
4SRUSalempur Junction (2)  07:13-07:15-2m--1-497.46371mNERSalempur, Uttar Pradesh
5LRDLar Road (2)  07:24-07:26-2m--1-487.95674mNERDeoria, Uttar Pradesh
6BLTRBelthara Road (2)  07:40-07:42-2m--1-474.84870mNERBelthara, Uttar Pradesh
7IAAIndara Junction (3)X  08:16-08:18-2m--1-447.83974mNERMau, Uttar Pradesh
8MAUMau Junction (4)  08:30-08:35-5m--1-439.95775mNERMau., Uttar Pradesh
9DLRDullahapurX  08:57-08:59-2m--1-418.93679mNERDullahapur, Uttar Pradesh
10JKNJakhanian  09:13-09:15-2m--1-410.55782mNERState Highway 67, Uttar Pradesh
11ARJAunrihar Junction (4)  09:45-09:47-2m--1-382.04080mNERGhazipur, Uttar Pradesh
12BCYVaranasi City (3)X  10:35-10:37-2m--1-350.1777mNERVaranasi, Uttar Pradesh
13BSBVaranasi Junction (9)  11:05-11:15-10m41-346.83782mNRVaranasi 221002, Uttar Pradesh
14CHHChaukhandiX  11:41-11:43-2m--1-331.06784mNR221405, Uttar Pradesh
15SWPRSewapuri (2)  11:49-11:51-2m11-324.34687mNRState Highway 87, Uttar Pradesh
16KEHKapseti (2)  11:58-12:00-2m--1-319.05685mNRState Highway 87, Uttar Pradesh
17PRFParsipur (2)X  12:09-12:11-2m--1-310.67187mNRSant Ravidas Nagar, Uttar Pradesh
18BOYBhadohi (2)  12:18-12:20-2m--1-302.44990mNRUttar Pradesh 221401, Uttar Pradesh
19MOFMondh (2)  12:30-12:32-2m21-294.25491mNRUttar Pradesh 221406, Uttar Pradesh
20SAWSuriawan (2)  12:40-12:42-2m--1-287.07590mNR221404, Uttar Pradesh
21SQNSarai Kansrai (2)XO  12:50-12:52-2m--1-276.9592mNRGopalaha Marg, Uttar Pradesh
22JNHJanghai Junction (3)X  13:49-13:51-2m--1-271.92492mNRUttar Pradesh 212401, Uttar Pradesh
23URPRUgrasenpur (2)  14:23-14:25-2m11-259.36396mNRJanghai, Uttar Pradesh
24PLPPhulpur (3)  14:35-14:37-2m--1-248.94993mNRDistrict - Allahabad 212402, Uttar Pradesh
25SYCSarai Chandi  14:50-14:52-2m--1-238.42895mNR221507, Uttar Pradesh
26PFMPhaphamau Junction (3)X  15:20-15:22-2m--1-225.32799mNRAllahabad, Uttar Pradesh
27PRGPrayag Junction (3)  15:36-15:38-2m--1-219.01796mNRAllahabad, Uttar Pradesh
28ALDAllahabad Junction (10)XO16:00-16:30-30m81-212.624100mNCRAllahabad 211003, Uttar Pradesh
29NYNNaini Junction (4)  16:48-16:50-2m31-205.57198mNCRAllahabad, Uttar Pradesh
30JSRJasra (2)  17:03-17:05-2m--1-190.17097mNCRJasra, Uttar Pradesh
31SRJShankargarh (3)  17:24-17:26-2m--1-168.178132mNCRShankargarh, Uttar Pradesh
32DBRDabhaura (2)X  17:51-17:53-2m--1-135.640201mNCRDabhaura, Uttar Pradesh
33MKPManikpur Junction (4)X  18:27-18:32-5m--1-113.182250mNCRManikpur, Uttar Pradesh
34JTWJaitwar (2)X  19:14-19:16-2m--1-55.535321mWCRJaitwar, Madhya Pradesh
35STASatna Junction (3)X  19:50-20:00-10m11-35.492322mWCRSatna, Madhya Pradesh
36MYR»Maihar (3)»X  20:23-20:25-2m--10.084353mWCRMaihar Railway Station, Madhya Pradesh
37KTEKatni Junction (6)X  21:10-21:15-5m--162.983387mWCRKatni, Madhya Pradesh
38SHRSihora Road (2)X  21:53-21:55-2m--1115.224388mWCRJabalpur, Madhya Pradesh
39JBPJabalpur Junction (4)X  23:30-23:40-10m11153.635416mWCRJabalpur, Madhya Pradesh
40MMLMadan Mahal (3)  23:46-23:48-2m11157.185428mWCRJabalpur, Madhya Pradesh
41SRIDShridham (3)  00:23-00:25-2m32206.849373mWCRShridham, Madhya Pradesh
42NUNarsinghpur (2)X  01:03-01:05-2m22237.876365mWCRNarsimhapur, Madhya Pradesh
43KYKareli (2)  01:18-01:20-2m22254.284361mWCRKareli, Madhya Pradesh
44GARGadarwara (2)X  01:40-01:42-2m22282.278352mWCRNarsinghpur, Madhya Pradesh
45PPIPipariya (3)  02:20-02:22-2m22331.666338mWCRPiparia, Madhya Pradesh
46SGPSohagpur (2)XO  02:38-02:40-2m--2349.330340mWCRSohagpur, Madhya Pradesh
47ETItarsi Junction (7)  04:20-04:30-10m32398.884329mWCRItarsi 461111, Madhya Pradesh
48BPFBanapura (2)  04:54-04:56-2m22432.277314mWCRBanapura, Madhya Pradesh
49TBNTimarni (2)  05:18-05:20-2m12460.561308mWCRTimarni, Madhya Pradesh
50HDHarda (3)  05:34-05:36-2m22474.676289mWCRHarda, Madhya Pradesh
51KKNKhirkiya (2)  06:01-06:03-2m12506.172281mWCRSH 15, Madhya Pradesh
52BRUDBarud (2)  06:20-06:22-2m--2526.668273mWCRKhandwa, Madhya Pradesh
53CAERChhanera (2)X  06:31-06:33-2m22536.861283mWCRChhanera, Madhya Pradesh
54TLVTalvadiya (2)XO  07:02-07:04-2m12566.513308mWCRKhandwa, Madhya Pradesh
55KNWKhandwa Junction (5)XO  08:15-08:20-5m22582.278310mCRKhandwa, Madhya Pradesh
56NPNRNepanagar (2)  08:53-08:55-2m12624.887289mCRState Highway 27, Madhya Pradesh
57BAUBurhanpur (2)  09:13-09:15-2m12651.181269mCRBurhanpur, Madhya Pradesh
58RVRaver (2)  09:30-09:32-2m12671.362242mCRJalgaon, Maharashtra
59BSLBhusaval Junction (8)XO10:05-17:50-465m42705.659208mCRBhusaval 425201, Maharashtra
60YLYeola (2)XO  21:28-21:30-2m12918.346553mCRYeola, Maharashtra
61KPGKopargaon (2)  21:48-21:50-2m22932.034508mCRKopargaon 423601, Maharashtra
62PBPuntamba Junction (2)XO  22:33-22:35-2m22956.337501mCRPuntamba, Maharashtra
63BAPBelapur (2)  23:08-23:10-2m22976.646541mCRShrirampur, Maharashtra
64ANGAhmadnagar (2)X  00:37-00:42-5m131043.741650mCRAhmednagar 414001, Maharashtra
65DDDaund Junction (7)XO02:45-03:00-15m231127.946521mCRNew Daund Dist. Pune 413801, Maharashtra
66KDGKedgaon (2)  03:28-03:30-2m131149.484544mCRDist. Pune 412203, Maharashtra
67URIUruli (2)XO  03:48-03:50-2m131174.738553mCRDist. Pune 412202, Maharashtra
68PUNEPune Junction (6)O04:35-04:50-15m331203.428556mCRPune 411001, Maharashtra
69GPRGhorpuri (2)  04:55-04:57-2m131205.766558mCRPune, Maharashtra
70JJRJejuri (1)X  05:48-05:50-2m131261.642697mCRDist. Pune 412303, Maharashtra
71NIRANira (1)O  06:28-06:30-2m131288.257553mCRDist. Pune 412102, Maharashtra
72LNNLonandX  06:38-06:40-2m131295.850594mCRJn Point Daund /Miraj /Pune, Maharashtra
73WTRWathar  07:13-07:15-2m131323.285799mCRSatara, Maharashtra
74JSVJarandeshwar  07:28-07:30-2m131341.515678mCRSH 61, Maharashtra
75STRSatara (3)O  08:00-08:03-3m231349.271637mCRSatara, Maharashtra
76KRGKoregaonO  08:12-08:14-2m131359.956658mCRKoregaon, Maharashtra
77RMPRahimatpurXO  08:25-08:27-2m131370.260626mCRSatara, Maharashtra
78TAZTargaonO  08:38-08:40-2m131381.270617mCRSatara, Maharashtra
79MSRMasurO  08:51-08:53-2m131394.036610mCRSatara, Maharashtra
80KRDKarad (3)O  09:16-09:18-2m131407.885597mCRDist- Satara., Maharashtra
81BVNRBhavani NagarO  09:33-09:35-2m131429.174578mCRTasgaon Rd, Maharashtra
82TKRTakariO  09:40-09:42-2m131435.233558mCRSangli, Maharashtra
83KOVKirloskarvadiX  09:56-09:58-2m131442.855570mCRSangli, Maharashtra
84BVQBhilavdi  10:13-10:15-2m131456.731570mCRSangli, Maharashtra
85SLISangli (3)  10:52-10:55-3m231475.722559mCRSangli, Maharashtra
86MRJMiraj Junction (6)O  11:15-11:20-5m331483.065554mCRMiraj 416410, Maharashtra
87JSPJayasingpurX  11:31-11:33-2m131494.958550mCRJaysingpur, Maharashtra
88HTKHatkanagale (2)XO  11:48-11:50-2m131509.456591mCRDist. Kolhapur 416115, Maharashtra
89RKDRukadi (1)O  11:58-12:00-2m231516.950544mCRKolhapur, Maharashtra
90VVValivade  12:08-12:10-2m131523.511554mCRValivade, Maharashtra
91KOP•Kolhapur CSMT (3)•  12:45--331530.1-563mCRKolhapur 416001, Maharashtra
Scroll to Top
Scroll to Bottom